Address 0x0c888f91d246e6da1b56400c5c074362564f3bde

Txn Hash Method
Block
From
To
Value [Txn Fee]
0xc6ce505a9a71a199bac4d00685467a672113b9686fee81081547684913cd8e08Transfer153258772022-09-27 16:49:201 hr 5 mins ago0x0c888f91d246e6da1b56400c5c074362564f3bdeOUT0x51dd757895adacba3a4635b6a8154ba4aaec700441.84164668 CELO0.0000105
0xfeff8e6c2dde512bc2ad924694d23bf68a67dda919b46f0f29771c2ecc2d0598Transfer153245602022-09-27 14:59:352 hrs 55 mins ago0x0c888f91d246e6da1b56400c5c074362564f3bdeOUT0xb5aee0ecfadf7b5bbd2a664453d002342a30a37310.93706482 CELO0.0000105
0x6b06a52b4ce95d9da481e6da6eee7516ede21a5977280eb7ad624c063d08cc3bTransfer153242162022-09-27 14:30:553 hrs 23 mins ago0x0c888f91d246e6da1b56400c5c074362564f3bdeOUT0xca762be7bff706ca2fa5236f36b928e3cc265b3614.90045954 CELO0.0000105
0xb9ff6c9a233d337682e22189c80aa027ee90cdcf0feb9482630cc5d31290829eTransfer153231112022-09-27 12:58:504 hrs 55 mins ago0x0c888f91d246e6da1b56400c5c074362564f3bdeOUT0x80249ca9eb51e7ec261c1b4fb823763e174c6336283.25525827 CELO0.0000105
0x905f3346c26ad5e00de6d87ba4b7d1ef6472e9d06578aad45c49dc6794f6e6d0Transfer153220252022-09-27 11:28:206 hrs 26 mins ago0x0c888f91d246e6da1b56400c5c074362564f3bdeOUT0x9e1b04381c9c8516638e24bf2502b30b0f988c3910.03764115 CELO0.0000105
0x44da28dff63025dc25422ca135899f149cc3a384c885e9a6cdff163129ef5784Transfer153188792022-09-27 7:06:1010 hrs 48 mins ago0x0c888f91d246e6da1b56400c5c074362564f3bdeOUT0x77bfebeb4b1d03f58eeff4e0f1c7b6670411d7120.971196 CELO0.0000105
0xb9663aa6e018007d7bbcd41f5ba9b93f979bfc3a3b9b6490c6b58cad6cfacbf7Transfer153165452022-09-27 3:51:4014 hrs 3 mins ago0x0c888f91d246e6da1b56400c5c074362564f3bdeOUT0x660c2d24dad2f0d2719412ebe4439227c33de91b17.5399 CELO0.0000105
0x9f6bf4a7837b868897c24e84290157c346f2c706c09c274513e5f6d6f2a646f0Transfer153143262022-09-27 0:46:4517 hrs 8 mins ago0x0c888f91d246e6da1b56400c5c074362564f3bdeOUT0x85d226e52982cd9e0138ba235fc5a0f1c263cb8e2.62779974 CELO0.0000105
0xdde1d7f4cd71a0a35dcb9d99a1a4f4549f4dbea7af067c9e99ae004169ce9317Transfer153143032022-09-27 0:44:5017 hrs 9 mins ago0x0c888f91d246e6da1b56400c5c074362564f3bdeOUT0x86904e32b0d7a8e1ab4dc4a02bae7ff93e9a2d3346,137.9999 CELO0.0000105
0x1a8838f6580a188911fa435ef91f1cb5e7f7afbaeaf7355d23a75905831974adTransfer153143002022-09-27 0:44:3517 hrs 10 mins ago0x244e17d0bd13702fb6ad44645e79c9474f54e862 IN 0x0c888f91d246e6da1b56400c5c074362564f3bde52,083.8124 CELO0.0000105
0x9c4df2ec6e53d6a3f66ddf5292355fbb1d57e23947104fa8181d230f7ed7fb2cTransfer153142762022-09-27 0:42:3517 hrs 12 mins ago0x219e077f5b4401bf6c1ab9de60861fd94b16d39e IN 0x0c888f91d246e6da1b56400c5c074362564f3bde88.9999 CELO0.0000105
0xd8da902fcc1367f77918e8dd939c6538355ab494908b127cb3b56ba646db727bTransfer153140372022-09-27 0:22:4017 hrs 32 mins ago0x1576d991f8e343cc76684e04bac65cf9476a7b8c IN 0x0c888f91d246e6da1b56400c5c074362564f3bde12.96632696 CELO0.0000105
0x3947f20a0d021eca168345dda6ecb11d5487c775ef199a7e60966d2c01f1da04Transfer153139632022-09-27 0:16:3017 hrs 38 mins ago0xbd19a6b7d592e7a00ccff8cd47ed92654c328388 IN 0x0c888f91d246e6da1b56400c5c074362564f3bde1,000.0099895 CELO0.0000105
0xa09358ebf2f8413262b9d17880fbe8103cf7620c1d441b5edde2b4292f43d60bTransfer153137972022-09-27 0:02:4017 hrs 52 mins ago0x185341cb8b60747acb91d8a1c952f9353df5e648 IN 0x0c888f91d246e6da1b56400c5c074362564f3bde11.25360133 CELO0.0000105
0xc712ccde2efb58999272d3a6abc1ea7cdc7f99ddaf73f9e282728095feb5bc45Transfer153134862022-09-26 23:36:4518 hrs 18 mins ago0xf5928e637a8b52a0ea0755d6dc2ede92f8df4126 IN 0x0c888f91d246e6da1b56400c5c074362564f3bde16.6989895 CELO0.0000105
0x9ac992cc9a3fcb0269dee02d1370abfccf7e3e4106d1c558988838737684240bTransfer153132912022-09-26 23:20:3018 hrs 34 mins ago0x949b6558130c63f6edcf7a55e07b58b6311c9ed3 IN 0x0c888f91d246e6da1b56400c5c074362564f3bde215.60007706 CELO0.0000105
0x9e8c7a02bc4a2d55482bc72b06360b7fd202d8fa65fba16188590dca99a92fabTransfer153131512022-09-26 23:08:5018 hrs 45 mins ago0x949b6558130c63f6edcf7a55e07b58b6311c9ed3 IN 0x0c888f91d246e6da1b56400c5c074362564f3bde5.18224597 CELO0.0000105
0xabf7f3a1ba6ab497729bc2a824e63b7521ab76a198eca97bdacb15c3a8e76f7eTransfer153129822022-09-26 22:54:4519 hrs ago0x8fe8dbed044e70b683e814c05c3fc3b820a0fafb IN 0x0c888f91d246e6da1b56400c5c074362564f3bde140.08805543 CELO0.0000105
0x723a737c35fa478c2f2c1a4ad2b4747ed7dcb41151a225c7190fe035a2e79431Transfer153121872022-09-26 21:48:3020 hrs 6 mins ago0x00c7ca160f2d190b7fcd39a20e0bc51a4235aa1f IN 0x0c888f91d246e6da1b56400c5c074362564f3bde32.66171127 CELO0.0000105
0x5d04215ea42e92b95d18798330f65623792fe93a2d6f5334d91bfa354e57dab7Transfer153120912022-09-26 21:40:3020 hrs 14 mins ago0x949b6558130c63f6edcf7a55e07b58b6311c9ed3 IN 0x0c888f91d246e6da1b56400c5c074362564f3bde38.88042709 CELO0.0000105
0xe1a0035a2f6220c1223b753ffb4b0a1d99bc6e84332e00741462b5aae8b648b8Transfer153118532022-09-26 21:20:4020 hrs 34 mins ago0xc8596a74081ca1ea37f5ac1efd176150e5ddafe4 IN 0x0c888f91d246e6da1b56400c5c074362564f3bde199.9999 CELO0.0000105
0xdb06dfa493e3f6ca2047536189b4a4fb5fb943d9ce7cbf908ab6cae191f580fdTransfer153118302022-09-26 21:18:4520 hrs 36 mins ago0x0c888f91d246e6da1b56400c5c074362564f3bdeOUT0xc8596a74081ca1ea37f5ac1efd176150e5ddafe4200 CELO0.0000105
0x1bf0e21b66c772db11d02776fb5d47925c6de062d4e5e8967a7f7fc407d8e959Transfer153116902022-09-26 21:07:0520 hrs 47 mins ago0x0c888f91d246e6da1b56400c5c074362564f3bdeOUT0x4695c6ccdbae1e88e5cf6c42f4298082f39e8b7811.68831169 CELO0.0000105
0x5da308fe3ebac06c295c57dd0424541a31a8b6a8bd76fe8726bfd9bb4cb2b88eTransfer153111802022-09-26 20:24:3521 hrs 30 mins ago0x949b6558130c63f6edcf7a55e07b58b6311c9ed3 IN 0x0c888f91d246e6da1b56400c5c074362564f3bde73.96966218 CELO0.0000105
0xc3759b5898a4d3af7d8a64de4bc50c97af06936a63d5ef773027ede737c2401eTransfer153110242022-09-26 20:11:3521 hrs 43 mins ago0x0c888f91d246e6da1b56400c5c074362564f3bdeOUT0x26a5431b7aa32c821744cbfe42c270ef0c5ef4636.23056995 CELO0.0000105
[ Download CSV Export 
Parent Txn Hash Block From To Value
Loading

Contract Name:
0

Compiler Version
0

Optimization Enabled:
0

Other Settings:
-NA-
Block Transaction Gas Used Reward
Age Block Fee Address BC Fee Address Voting Power Jailed Incoming
Block Uncle Number Difficulty Gas Used Reward
Loading
Make sure to use the "Vote Down" button for any spammy posts, and the "Vote Up" for interesting conversations.